Flag for U.S.A. Weather past 2 weeks in Black Mountain, North Carolina, U.S.A.

Now
61 °F

Clear.


Feels Like: 61 °F
Forecast: 44 / 68 °F
Wind: 5 mph from Northwest

Location: Asheville Regional Airport

Current Time: Apr 1, 2015 at 12:58:27 AM

Latest Report: Mar 31, 2015 at 11:54 PM


Visibility: 10 mi

Pressure: 29.87 "Hg

Humidity: 50%

Dew point: 42 °F

Location of Black MountainLocation

Historic Weather in Black Mountain — Graph

°F

Black Mountain temperature yesterday

Maximum temperature yesterday: 74 °F (at 2:54 PM)
Minimum temperature yesterday: 34 °F (at 5:54 AM)
Average temperature yesterday: 56 °F

Past Weeks' High & Low Weather Summary

 TemperatureHumidityPressure
High74 °F (Mar 17, 2:54 PM)97% (Mar 20, 1:54 AM)30.39 "Hg (Mar 20, 1:54 AM)
Low27 °F (Mar 28, 7:54 AM)15% (Mar 21, 3:54 PM)29.67 "Hg (Mar 27, 4:54 AM)
Average51 °F61%30.04 "Hg
* Reported Mar 16 11:54 PM — Mar 31 11:54 PM, Black Mountain, Weather by CustomWeather, © 2015

Note: Actual official high and low records may vary slightly from our data, if they occured in-between our weather recording intervals... More about our weather records

Advertising

Black Mountain weather history for previous 24 hours

 ConditionsComfort  
Time TempWeatherWind HumidityBarometerVisibility
11:54 PM
Tue, Mar 31
61 °FClear.5 mph50%29.87 "Hg10 mi
10:54 PM62 °FClear.3 mph48%29.87 "Hg10 mi
9:54 PM64 °FClear.5 mph45%29.87 "Hg10 mi
8:54 PM64 °FClear.6 mph43%29.86 "Hg10 mi
7:54 PM67 °FScattered clouds.5 mph35%29.84 "Hg10 mi
6:54 PM69 °FPartly sunny.10 mph31%29.84 "Hg10 mi
5:54 PM72 °FSunny.15 mph26%29.84 "Hg10 mi
4:54 PM72 °FSunny.18 mph22%29.83 "Hg10 mi
3:54 PM73 °FSunny.12 mph19%29.84 "Hg10 mi
2:54 PM74 °FSunny.13 mph17%29.85 "Hg10 mi
1:54 PM71 °FSunny.6 mph19%29.89 "Hg10 mi
12:54 PM65 °FSunny.5 mph24%29.94 "Hg10 mi
11:54 AM61 °FSunny.7 mph30%29.98 "Hg10 mi
10:54 AM58 °FSunny.3 mph36%30.01 "Hg10 mi
9:54 AM48 °FSunny.No wind50%30.04 "Hg10 mi
8:54 AM40 °FSunny.No wind68%30.06 "Hg10 mi
7:54 AM35 °FClear.No wind82%30.05 "Hg10 mi
6:54 AM34 °FClear.3 mph82%30.04 "Hg10 mi
5:54 AM34 °FClear.5 mph82%30.02 "Hg10 mi
4:54 AM36 °FClear.No wind82%30.02 "Hg10 mi
3:54 AM39 °FClear.No wind67%30.02 "Hg10 mi
2:54 AM44 °FClear.3 mph51%30.04 "Hg10 mi
1:54 AM45 °FClear.3 mph49%30.05 "Hg10 mi
12:54 AM47 °FClear.8 mph46%30.06 "Hg10 mi
Weather by CustomWeather, © 2015

See weather overviewHow to use our weather pages